Temperature
16 14 14 14 14 15 15 16 15 15 16 16 15 15 16 17 17 16 17 18 19 19 20 19 19 18 18 17 16 16 15 14 13 13 12 12 12 11 11 11 11 11 10 10
13 13 14 15 15 15 15 15 15 15 16 16 14 14 15 15 16 17 18 18 19 19 19 19 19 18 18 17 16 16 15 14 14 13 13 12 12 12 11 11 11 10 10 10
13 15 15 15 15 15 15 15 15 15 15 15 14 14 15 16 17 18 18 19 19 19 19 19 19 18 18 17 17 16 15 15 14 13 13 12 11 11 11 11 11 11 10 10
13 14 15 15 15 15 14 15 15 15 14 13 14 13 14 14 15 16 17 18 19 19 19 19 19 18 18 17 17 16 15 15 14 13 12 12 12 11 11 11 11 11 10 10
14 14 15 15 15 15 15 16 15 15 14 13 12 13 13 14 16 16 16 18 19 19 19 19 19 18 18 17 17 16 15 14 14 13 13 12 12 12 11 11 11 10 10 10
14 15 15 15 15 15 15 15 13 12 11 12 12 12 13 13 16 16 16 18 19 19 19 19 18 18 17 17 16 16 15 14 14 13 13 12 12 12 11 11 11 10 10 10
14 14 15 15 15 15 14 13 12 12 11 12 13 12 13 14 15 16 16 18 19 19 19 19 18 18 17 17 16 15 15 14 14 13 13 12 12 11 11 11 11 10 10 10
12 13 14 14 14 13 13 13 12 12 12 12 13 13 14 15 16 17 18 18 18 18 18 19 18 18 18 17 16 15 15 14 14 13 13 12 12 11 11 11 10 10 10 10
13 13 14 14 14 14 13 12 12 12 12 12 12 12 13 15 15 15 16 17 18 18 18 18 18 18 18 17 16 16 15 14 14 13 13 12 12 11 11 10 10 10 10 9
13 13 13 14 14 14 13 12 11 12 12 11 12 12 14 15 15 15 14 16 18 18 18 18 18 18 17 17 16 16 15 14 14 13 13 12 11 11 10 10 10 9 9 9
13 12 12 13 13 13 12 13 12 11 10 11 11 12 14 14 14 14 15 17 18 18 18 18 18 18 17 16 16 15 15 14 14 13 12 12 11 11 10 10 9 9 9 9
12 11 11 11 12 13 12 12 11 11 11 10 10 12 14 13 14 15 16 17 18 18 18 18 18 17 17 16 16 15 15 14 14 13 12 12 11 10 10 9 9 9 8 8
12 11 11 11 12 12 12 12 12 12 11 9 10 13 14 14 14 15 16 17 18 18 18 17 17 17 16 16 15 15 14 14 13 13 12 11 11 10 10 9 9 8 8 8
12 10 11 12 12 11 11 12 12 12 11 10 11 13 14 14 14 14 16 17 17 18 17 17 17 16 16 15 15 14 14 13 13 12 12 11 11 10 10 9 8 8 8 7
11 10 10 11 12 11 11 12 12 12 12 12 12 12 14 14 13 15 16 17 17 17 17 17 16 16 16 15 14 14 13 13 12 12 11 11 10 10 9 9 8 8 7 7
10 10 10 11 12 11 12 12 12 12 12 12 12 12 13 14 15 15 16 16 16 17 17 17 16 16 15 15 14 14 13 12 12 11 11 10 10 9 9 8 8 7 7 6
9 9 10 10 11 11 11 12 12 12 12 12 13 14 14 13 13 14 16 16 16 17 17 16 16 16 15 15 14 13 13 12 11 11 10 10 9 9 8 8 7 7 6 6
9 9 8 8 10 10 12 12 13 13 13 13 12 13 13 13 15 16 17 17 17 17 16 16 16 15 15 14 14 13 12 12 11 10 10 9 9 8 8 7 7 6 6 5
9 9 8 7 8 9 10 11 12 12 12 13 13 13 13 14 14 14 16 16 17 16 16 16 15 15 14 14 13 12 12 11 10 10 9 9 8 8 7 7 6 6 5 5
8 9 8 7 8 9 11 12 13 12 12 13 12 12 12 12 11 13 16 16 16 16 15 15 14 14 13 13 12 12 11 10 10 9 9 8 8 7 6 6 5 5 4 4
8 8 8 7 8 9 11 12 12 12 12 14 14 14 13 11 14 16 16 15 15 15 14 14 14 13 13 12 11 11 10 10 9 9 8 7 7 6 6 5 5 4 4 3
9 8 7 7 7 9 11 10 12 13 15 15 15 15 15 15 15 15 15 15 14 14 14 13 13 12 12 11 11 10 9 9 8 8 7 6 6 5 5 4 4 3 3 2
9 10 9 9 11 11 12 13 15 16 15 16 16 16 15 15 14 14 14 14 14 13 13 13 12 11 11 10 10 9 8 8 7 7 6 6 5 4 4 3 3 2 2 1
7 8 8 8 9 11 13 14 15 15 16 16 16 16 15 15 15 14 14 14 13 13 12 12 11 10 10 9 8 8 7 7 6 6 5 5 4 4 3 2 2 2 1 0
8 7 8 8 9 10 12 14 15 15 15 15 15 15 15 14 14 14 13 13 12 12 11 10 10 9 9 8 7 7 6 6 5 5 4 4 3 3 2 2 1 1 -0 -1
7 8 9 10 10 10 12 15 15 15 15 14 14 14 14 14 14 13 13 12 11 11 10 9 9 8 7 7 6 6 5 5 4 4 3 3 2 2 1 1 0 -0 -1 -2
Wind_Speed
4 4 8 10 10 7 5 4 6 7 4 4 10 14 17 11 8 10 10 10 10 12 11 9 10 11 11 12 13 14 14 14 12 9 9 8 8 7 7 9 14 15 15 14
3 10 12 8 6 6 5 5 6 6 5 4 8 13 12 9 7 8 9 10 10 9 6 7 9 10 12 13 14 14 15 15 14 12 9 7 6 5 6 7 11 14 15 14
12 8 8 8 7 7 7 7 7 6 7 5 6 10 8 6 4 5 5 6 7 8 9 8 9 11 11 13 15 15 15 14 14 12 7 5 4 3 4 6 7 9 14 14
10 9 6 8 9 9 9 7 6 4 2 5 2 6 9 7 7 6 6 6 7 7 7 8 9 10 12 13 12 13 14 13 13 12 11 11 9 8 9 6 7 8 12 13
9 9 10 10 11 11 8 5 4 3 2 5 3 4 9 5 6 8 8 8 7 7 7 9 10 12 11 11 11 11 12 12 12 13 14 13 10 8 6 6 8 8 7 10
8 6 10 11 7 8 5 4 4 3 2 5 7 6 8 6 8 7 7 7 7 6 6 6 7 7 7 8 9 10 11 12 12 13 13 14 13 10 9 8 9 8 6 6
7 7 5 6 6 4 6 5 1 2 1 7 5 6 10 9 9 9 9 9 7 7 6 6 7 8 9 9 10 10 12 12 12 13 13 14 13 13 13 11 11 9 7 6
10 8 10 8 9 9 9 10 8 6 6 5 3 8 9 8 6 6 6 6 6 7 7 8 9 10 10 11 11 11 12 12 12 13 13 12 11 10 10 11 10 11 9 9
11 9 4 7 6 11 9 9 8 6 2 4 6 8 9 3 3 5 6 6 7 8 9 9 8 9 9 10 11 12 12 11 11 12 11 10 11 11 10 10 9 8 8 7
7 6 4 5 4 4 8 9 6 6 6 6 7 7 6 7 8 8 8 9 9 8 8 8 8 8 9 9 9 9 10 11 10 11 11 10 10 11 10 9 10 9 9 8
4 6 3 5 11 12 8 8 6 7 5 6 5 8 8 10 10 11 11 10 10 10 9 8 7 7 7 6 7 8 9 9 9 9 9 9 9 9 9 9 10 9 8 9
6 5 5 8 6 8 9 10 10 8 7 7 5 9 7 9 10 10 10 10 8 8 7 7 6 5 5 6 6 7 8 8 9 8 8 8 8 8 8 9 8 8 9 9
7 6 4 1 2 4 7 8 10 7 5 7 7 9 5 4 6 8 8 8 8 8 7 6 5 5 6 6 6 7 7 8 7 7 8 7 7 8 8 8 8 8 8 8
8 5 8 12 8 8 8 10 11 9 8 8 12 12 8 7 8 8 8 9 8 7 7 7 7 7 6 6 6 6 6 6 6 6 7 8 8 8 8 7 7 7 7 8
7 7 7 7 6 7 10 12 14 15 15 14 14 15 14 12 10 9 8 8 7 7 8 8 8 7 6 6 5 6 5 5 6 6 7 7 6 6 6 6 6 6 6 7
6 6 6 7 7 8 9 13 16 18 17 17 14 16 13 10 8 9 10 9 9 9 9 8 8 7 7 7 6 6 5 5 5 6 6 5 5 5 5 5 5 5 5 5
7 7 6 7 5 4 11 15 17 14 14 15 21 23 10 8 11 12 11 10 11 11 10 9 8 8 8 8 7 7 6 5 5 5 5 4 5 5 5 4 4 5 5 5
9 8 5 3 4 11 11 8 13 15 16 18 16 13 12 14 13 10 10 11 11 10 9 9 8 7 6 5 5 5 5 5 5 5 4 4 4 4 4 4 4 5 4 5
9 9 5 5 7 10 9 7 11 13 15 16 18 16 11 7 4 7 9 10 11 10 8 8 7 6 5 6 6 5 5 5 5 5 5 5 5 5 4 4 4 3 3 4
6 7 7 6 7 10 10 7 7 7 12 12 14 16 12 8 6 10 8 8 8 6 6 6 5 5 5 5 6 6 5 5 5 5 5 4 4 5 5 4 3 3 3 4
8 6 9 8 8 10 10 6 8 8 11 7 11 13 11 12 12 7 6 6 6 6 5 6 6 5 6 5 7 6 5 6 5 4 3 3 3 3 3 3 2 2 2 2
12 10 10 8 9 12 7 8 11 10 4 4 6 9 10 11 8 6 7 7 7 6 5 6 5 5 4 5 7 6 5 4 3 4 3 3 2 2 2 2 1 2 2 2
12 13 9 12 12 7 8 11 10 6 6 6 6 7 8 8 7 7 7 7 7 7 6 5 6 5 3 4 6 6 4 4 4 4 3 2 2 1 2 2 2 1 2 2
7 6 7 7 10 9 9 9 8 8 9 8 7 7 7 8 8 8 7 6 6 6 6 5 6 6 4 3 4 4 4 4 5 4 3 2 2 1 1 1 2 2 2 3
9 8 8 10 10 8 10 11 11 9 7 6 5 6 8 8 7 7 7 7 6 6 5 6 6 6 5 4 3 4 4 5 5 4 3 2 2 2 1 1 2 3 4 4
9 10 12 12 10 9 11 11 10 10 9 8 7 5 5 7 8 7 7 6 6 6 5 6 6 5 5 4 4 3 4 5 5 3 2 2 2 1 1 1 3 4 6 8
Wind_Direction
165 150 207 210 201 198 198 215 253 257 263 252 254 268 277 276 256 250 247 244 240 238 238 220 205 193 185 184 183 183 183 182 176 176 178 179 187 189 189 191 190 188 187 187
146 223 219 204 206 202 216 245 265 285 297 271 277 279 278 272 251 241 240 240 239 241 238 216 200 189 187 187 188 186 187 184 184 185 184 181 176 185 191 192 193 192 189 188
199 221 198 192 207 210 225 223 236 264 320 337 328 306 294 289 277 267 251 242 237 227 223 211 198 194 190 191 191 190 189 187 186 179 165 148 139 146 182 199 200 198 193 192
222 235 192 191 209 194 233 224 214 235 326 296 354 298 288 283 290 274 272 263 252 243 222 209 199 196 197 199 193 191 188 187 184 176 176 175 184 194 200 194 196 197 198 195
220 204 199 206 209 191 212 199 195 208 210 287 268 231 280 288 264 260 256 255 253 241 217 208 204 202 202 196 190 191 187 188 185 184 186 189 197 199 185 182 190 198 201 199
223 212 200 206 199 187 164 91 53 61 98 266 232 200 273 244 228 239 244 247 243 232 214 210 204 195 197 190 187 186 187 193 189 189 190 194 197 191 183 190 196 201 203 204
220 228 207 167 158 160 134 117 12 300 268 248 223 210 250 244 233 220 222 231 227 218 205 204 195 197 199 194 192 189 190 197 195 194 197 200 200 196 198 198 201 201 203 208
190 220 208 189 178 177 180 163 177 205 222 267 259 229 252 256 242 228 221 216 213 214 215 215 210 205 204 202 198 194 196 201 198 200 204 203 200 201 206 203 203 205 209 211
187 218 204 194 172 152 165 193 179 152 205 251 263 274 297 263 232 228 226 217 221 224 223 223 221 214 209 206 204 200 201 204 203 203 203 203 203 203 206 204 205 208 210 206
159 196 210 182 127 169 167 161 140 164 191 235 270 260 242 234 227 230 226 225 230 230 229 228 225 220 217 213 210 204 204 206 206 203 204 207 206 207 206 202 207 208 208 203
153 163 188 172 190 186 163 175 171 171 181 184 242 260 227 217 212 211 221 225 226 226 226 225 225 222 216 210 204 205 207 208 207 205 205 206 206 205 203 207 210 208 205 201
164 149 203 226 234 197 180 182 164 177 212 197 208 261 255 230 222 212 221 233 234 228 226 225 221 215 209 208 206 206 207 208 209 204 201 206 205 200 203 210 209 203 203 202
163 152 154 260 260 193 203 200 190 174 162 181 199 254 280 249 237 232 230 237 237 232 229 223 217 215 215 213 210 209 209 210 208 199 201 205 205 203 208 211 206 201 201 202
160 171 194 204 209 188 205 208 195 180 200 217 223 241 266 260 252 255 248 237 233 233 225 218 220 222 221 216 212 211 215 208 199 194 199 207 209 208 210 208 203 201 200 200
159 196 219 237 224 191 207 210 202 206 211 218 233 234 241 243 241 244 242 237 231 232 228 222 220 222 221 219 216 211 211 202 190 190 201 212 211 205 202 201 201 198 198 202
162 185 200 238 233 220 230 221 213 218 222 230 244 253 243 242 242 244 239 228 227 230 229 227 222 217 215 213 210 206 207 201 184 191 205 205 196 194 198 199 195 193 197 198
173 161 177 231 240 256 246 217 212 216 218 215 233 244 243 236 236 236 235 225 223 226 226 221 216 213 212 208 200 199 199 184 179 191 199 196 191 195 199 193 189 197 201 201
171 169 169 186 172 231 242 213 209 218 230 223 230 239 231 230 236 234 224 217 222 221 219 216 209 208 208 198 189 181 173 172 178 187 195 194 188 193 190 184 197 205 202 207
181 168 164 172 214 261 277 234 202 209 240 230 231 239 238 227 239 263 230 214 216 214 209 205 200 196 188 188 179 164 168 170 178 193 199 195 186 186 186 196 208 209 206 219
172 168 168 172 200 234 241 230 193 177 252 239 219 230 225 169 218 251 225 207 209 199 190 187 178 170 177 186 163 161 175 179 197 200 196 189 183 184 194 204 209 210 211 226
167 180 192 191 217 252 246 222 136 183 237 234 206 214 200 196 218 226 185 189 190 188 185 173 166 174 189 175 158 169 181 201 203 181 169 169 175 183 191 191 196 203 217 230
180 184 194 186 212 241 222 160 187 218 228 210 205 208 203 212 219 208 197 194 186 182 181 171 165 176 180 165 160 172 196 199 160 148 151 160 166 171 161 167 195 201 205 234
200 195 188 199 218 227 197 207 224 204 206 214 207 213 199 202 210 207 203 198 194 188 182 172 166 166 175 171 164 176 194 161 144 142 154 159 152 154 162 176 197 220 220 237
231 194 186 224 242 237 233 237 243 222 217 218 208 203 192 200 203 202 199 195 192 187 181 169 160 166 181 178 166 173 166 149 142 148 155 152 152 165 185 197 202 216 231 245
207 184 202 231 246 250 247 232 232 233 232 227 220 209 199 193 199 197 196 196 192 185 176 168 170 174 178 165 155 154 151 141 140 146 153 157 169 184 214 239 235 238 234 242
206 194 203 225 217 211 234 231 221 216 220 214 209 219 213 196 197 191 192 191 181 176 169 166 168 166 166 158 153 152 150 144 146 154 166 177 187 201 219 260 300 291 283 287
Height
1515 1521 1522 1521 1521 1523 1524 1526 1527 1522 1515 1516 1516 1510 1501 1497 1496 1494 1493 1493 1493 1494 1496 1498 1500 1502 1505 1507 1510 1512 1514 1517 1520 1522 1524 1527 1529 1531 1533 1535 1536 1537 1538 1539
1518 1518 1512 1514 1517 1520 1522 1525 1525 1520 1514 1515 1514 1508 1498 1493 1491 1489 1488 1488 1488 1489 1490 1492 1495 1497 1500 1502 1505 1507 1510 1513 1515 1517 1520 1523 1525 1527 1529 1531 1532 1533 1534 1535
1512 1508 1508 1513 1516 1518 1519 1522 1522 1521 1517 1514 1515 1510 1499 1491 1488 1487 1485 1485 1484 1485 1486 1487 1490 1493 1495 1498 1500 1503 1505 1508 1511 1514 1517 1520 1522 1524 1525 1526 1527 1529 1530 1531
1508 1505 1506 1509 1512 1515 1519 1514 1516 1518 1523 1527 1521 1527 1504 1494 1489 1485 1483 1482 1481 1482 1482 1484 1486 1488 1491 1494 1497 1499 1501 1504 1507 1509 1512 1514 1515 1516 1518 1521 1523 1525 1526 1527
1503 1500 1503 1506 1506 1508 1511 1510 1513 1516 1521 1527 1523 1526 1508 1495 1490 1483 1480 1479 1479 1479 1480 1481 1482 1485 1487 1490 1493 1495 1497 1500 1502 1505 1507 1509 1510 1512 1515 1517 1519 1520 1521 1522
1496 1495 1496 1498 1500 1503 1506 1512 1517 1523 1527 1532 1521 1526 1512 1496 1485 1480 1477 1476 1477 1477 1478 1479 1480 1482 1484 1487 1489 1491 1493 1495 1498 1500 1502 1503 1505 1508 1510 1511 1513 1515 1516 1517
1496 1494 1492 1493 1500 1503 1507 1519 1531 1530 1535 1529 1515 1517 1504 1484 1477 1475 1474 1474 1474 1475 1476 1477 1478 1479 1481 1483 1485 1487 1489 1490 1493 1495 1497 1498 1500 1503 1504 1506 1508 1509 1510 1511
1497 1497 1490 1489 1492 1499 1504 1511 1526 1531 1532 1524 1512 1511 1491 1476 1472 1472 1472 1473 1473 1473 1474 1475 1476 1477 1478 1479 1481 1482 1484 1486 1488 1489 1491 1493 1496 1497 1499 1501 1502 1503 1504 1506
1488 1490 1483 1484 1485 1491 1502 1507 1508 1519 1521 1523 1515 1501 1485 1472 1471 1471 1471 1471 1471 1471 1472 1473 1473 1474 1475 1476 1477 1478 1480 1481 1483 1484 1486 1488 1490 1491 1493 1495 1497 1498 1499 1501
1479 1487 1483 1482 1485 1487 1490 1497 1510 1516 1523 1525 1514 1503 1490 1475 1472 1470 1470 1469 1469 1469 1470 1470 1471 1472 1472 1473 1474 1475 1476 1476 1478 1479 1481 1482 1484 1486 1488 1489 1490 1492 1493 1495
1476 1484 1486 1484 1484 1487 1491 1496 1499 1507 1512 1519 1517 1500 1472 1468 1466 1466 1466 1465 1465 1466 1467 1467 1468 1468 1469 1469 1470 1471 1472 1472 1473 1474 1476 1477 1478 1480 1482 1483 1484 1486 1487 1488
1473 1482 1487 1483 1477 1476 1480 1484 1492 1503 1506 1507 1509 1493 1461 1461 1460 1460 1461 1462 1462 1463 1464 1464 1465 1465 1465 1465 1466 1467 1467 1468 1469 1470 1471 1472 1473 1475 1476 1477 1478 1480 1481 1482
1469 1479 1487 1486 1484 1480 1479 1479 1482 1486 1495 1503 1504 1486 1459 1458 1458 1458 1458 1459 1459 1460 1461 1461 1461 1461 1461 1462 1462 1463 1463 1464 1464 1465 1466 1467 1468 1469 1470 1471 1472 1474 1475 1476
1462 1471 1475 1476 1473 1473 1476 1475 1476 1482 1489 1492 1486 1473 1462 1458 1457 1456 1456 1455 1456 1456 1457 1457 1457 1457 1458 1458 1458 1459 1459 1460 1460 1461 1461 1462 1463 1464 1465 1466 1467 1468 1469 1470
1459 1467 1468 1466 1463 1466 1467 1467 1469 1472 1471 1475 1468 1465 1457 1453 1453 1452 1452 1452 1452 1453 1453 1453 1453 1453 1453 1454 1454 1455 1455 1456 1456 1456 1456 1457 1458 1459 1460 1461 1461 1462 1463 1464
1457 1462 1464 1464 1461 1461 1461 1459 1460 1461 1461 1461 1460 1455 1445 1446 1448 1448 1448 1448 1448 1448 1448 1449 1449 1449 1449 1450 1450 1450 1451 1451 1452 1452 1452 1453 1454 1454 1455 1455 1456 1457 1457 1458
1455 1460 1464 1466 1461 1460 1460 1450 1450 1451 1449 1451 1450 1440 1440 1443 1442 1442 1442 1442 1442 1443 1444 1444 1444 1445 1445 1446 1446 1446 1446 1447 1447 1448 1448 1448 1449 1450 1450 1451 1451 1451 1452 1452
1451 1456 1462 1466 1464 1467 1442 1435 1436 1438 1437 1436 1434 1431 1433 1434 1434 1435 1436 1437 1437 1438 1439 1439 1440 1441 1441 1442 1442 1442 1442 1443 1443 1443 1444 1444 1445 1445 1445 1446 1446 1446 1446 1446
1440 1449 1460 1465 1463 1453 1440 1431 1431 1434 1431 1425 1426 1425 1426 1428 1431 1430 1430 1431 1432 1433 1434 1435 1436 1436 1437 1438 1438 1438 1438 1438 1439 1439 1439 1440 1440 1440 1441 1441 1441 1441 1441 1440
1437 1441 1452 1459 1458 1450 1431 1422 1420 1427 1429 1416 1417 1418 1420 1426 1432 1424 1423 1425 1426 1428 1429 1430 1431 1432 1433 1433 1434 1434 1434 1434 1434 1435 1435 1436 1436 1436 1436 1436 1436 1435 1435 1434
1438 1442 1445 1449 1448 1436 1421 1417 1420 1432 1420 1408 1408 1409 1413 1417 1416 1416 1419 1420 1422 1423 1425 1426 1426 1427 1428 1429 1429 1429 1429 1430 1430 1431 1431 1431 1432 1431 1431 1431 1431 1430 1429 1429
1425 1433 1438 1440 1443 1431 1412 1414 1415 1409 1404 1404 1404 1405 1407 1408 1410 1412 1414 1415 1417 1418 1420 1420 1421 1422 1423 1424 1424 1424 1425 1425 1426 1426 1427 1427 1427 1427 1426 1426 1425 1425 1424 1422
1413 1411 1414 1416 1411 1403 1402 1401 1400 1401 1401 1401 1401 1402 1403 1404 1406 1407 1409 1410 1412 1413 1414 1415 1416 1417 1418 1419 1419 1420 1420 1421 1421 1422 1422 1422 1422 1422 1421 1421 1420 1419 1418 1416
1405 1402 1406 1407 1401 1397 1396 1395 1396 1397 1397 1397 1398 1399 1400 1400 1401 1403 1404 1405 1407 1408 1409 1410 1411 1412 1413 1414 1415 1415 1416 1416 1417 1417 1417 1417 1417 1417 1416 1416 1415 1413 1412 1411
1394 1397 1398 1397 1392 1392 1389 1390 1391 1392 1393 1393 1394 1395 1396 1396 1397 1398 1399 1401 1402 1403 1404 1405 1406 1407 1408 1409 1410 1411 1412 1412 1412 1412 1412 1412 1412 1411 1411 1410 1409 1408 1407 1406
1383 1386 1389 1386 1383 1385 1382 1383 1385 1386 1387 1388 1389 1390 1391 1392 1393 1394 1395 1396 1397 1398 1399 1400 1401 1403 1404 1405 1406 1407 1408 1408 1408 1408 1407 1407 1407 1406 1405 1404 1403 1402 1402 1400